Weather History for Orr, MN

Change the Weather History Date:

Sunday, October 6, 2013

  Actual Average Record
Temperature  
Mean Temperature 45 °F -  
Max Temperature 51 °F 55 °F 82 °F (2004)
Min Temperature 39 °F 34 °F 17 °F (1999)
Degree Days  
Heating Degree Days 20    
Moisture  
Dew Point 40 °F    
Average Humidity 88    
Maximum Humidity 93    
Minimum Humidity 71    
Precipitation  
Precipitation 0.34 in - - ()
Sea Level Pressure  
Sea Level Pressure 29.75 in    
Wind  
Wind Speed 1 mph (NW)    
Max Wind Speed 10 mph    
Max Gust Speed -    
Visibility 9 miles    
Events Rain    
Averages and records for this station are not official NWS values.
T = Trace of Precipitation, MM = Missing Value Source: NWS Daily Summary

Daily Weather History Graph

Daily Weather History Graph

Search for Another Location

Airport:

Trip Planner

Search our weather history database for the weather conditions in past years. The results will help you decide how hot, cold, wet, or windy it might be!

Date:

Astronomy

Oct. 06, 2013 Rise Set
Actual Time 7:18 AM CDT 6:39 PM CDT
Civil Twilight 6:47 AM CDT 7:10 PM CDT
Nautical Twilight 6:11 AM CDT 7:46 PM CDT
Astronomical Twilight 5:34 AM CDT 8:23 PM CDT
Moon 9:13 AM CDT (10/6) 7:27 PM CDT (10/6)
Length of Visible Light 12h 23m
Length of Day
11h 21m
Waxing Crescent, 3% of the Moon is Illuminated
Oct 6
Waxing Crescent
Oct 11
First Quarter
Oct 18
Full
Oct 26
Last Quarter
Nov 3
New

Hourly Weather History & Observations

Time (CDT) Temp. Windchill Dew Point Humidity Pressure Visibility Wind Dir Wind Speed Gust Speed Precip Events Conditions
12:13 AM 44.6 °F - 41.0 °F 87% 29.83 in 10.0 mi Calm Calm - 0.02 in Rain Light Rain
12:33 AM 42.8 °F - 41.0 °F 93% 29.80 in 10.0 mi Calm Calm - 0.05 in Rain Light Rain
12:53 AM 42.8 °F - 41.0 °F 93% 29.80 in 10.0 mi Calm Calm - 0.06 in   Overcast
1:13 AM 42.8 °F - 41.0 °F 93% 29.81 in 10.0 mi Calm Calm - N/A   Overcast
1:33 AM 42.8 °F - 39.2 °F 87% 29.82 in 10.0 mi Calm Calm - 0.03 in Rain Light Rain
1:53 AM 42.8 °F - 39.2 °F 87% 29.79 in 4.0 mi Calm Calm - 0.10 in Rain Rain
2:13 AM 42.8 °F - 39.2 °F 87% 29.80 in 4.0 mi Calm Calm - 0.08 in Rain Rain
2:33 AM 42.8 °F - 39.2 °F 87% 29.77 in 10.0 mi Calm Calm - 0.15 in Rain Light Rain
2:53 AM 42.8 °F - 39.2 °F 87% 29.75 in 10.0 mi Calm Calm - 0.16 in Rain Light Rain
3:13 AM 42.8 °F 41.1 °F 39.2 °F 87% 29.74 in 10.0 mi North 3.5 mph - 0.01 in   Overcast
3:33 AM 42.8 °F - 39.2 °F 87% 29.75 in 10.0 mi Calm Calm - 0.01 in   Overcast
3:53 AM 42.8 °F - 39.2 °F 87% 29.75 in 10.0 mi Calm Calm - 0.01 in   Overcast
4:13 AM 41.0 °F - 39.2 °F 93% 29.75 in 10.0 mi Calm Calm - N/A   Overcast
4:33 AM 41.0 °F - 39.2 °F 93% 29.75 in 10.0 mi Calm Calm - N/A   Overcast
4:53 AM 41.0 °F 39.0 °F 39.2 °F 93% 29.75 in 10.0 mi NW 3.5 mph - N/A   Overcast
5:13 AM 41.0 °F - 39.2 °F 93% 29.75 in 10.0 mi Calm Calm - N/A   Overcast
5:33 AM 41.0 °F - 39.2 °F 93% 29.74 in 7.0 mi Calm Calm - N/A   Overcast
5:54 AM 41.0 °F - 39.2 °F 93% 29.75 in 4.0 mi Calm Calm - 0.01 in   Overcast
6:13 AM 41.0 °F - 39.2 °F 93% 29.76 in 2.5 mi Calm Calm - N/A   Overcast
6:33 AM 41.0 °F - 39.2 °F 93% 29.75 in 4.0 mi Calm Calm - N/A   Overcast
6:53 AM 41.0 °F - 39.2 °F 93% 29.76 in 7.0 mi Calm Calm - N/A   Overcast
7:13 AM 41.0 °F - 39.2 °F 93% 29.76 in 7.0 mi Calm Calm - N/A   Overcast
7:33 AM 41.0 °F - 39.2 °F 93% 29.76 in 5.0 mi Calm Calm - N/A   Overcast
7:53 AM 41.0 °F - 39.2 °F 93% 29.76 in 4.0 mi Calm Calm - N/A   Overcast
8:13 AM 41.0 °F - 39.2 °F 93% 29.75 in 10.0 mi Calm Calm - N/A   Overcast
8:33 AM 41.0 °F - 39.2 °F 93% 29.74 in 10.0 mi Calm Calm - N/A   Overcast
8:53 AM 42.8 °F - 39.2 °F 87% 29.74 in 10.0 mi Calm Calm - N/A   Overcast
9:13 AM 42.8 °F 41.1 °F 39.2 °F 87% 29.75 in 10.0 mi NW 3.5 mph - N/A   Overcast
9:33 AM 42.8 °F - 39.2 °F 87% 29.75 in 10.0 mi Calm Calm - N/A   Overcast
9:53 AM 42.8 °F - 39.2 °F 87% 29.75 in 7.0 mi Calm Calm - N/A   Overcast
10:13 AM 42.8 °F 41.1 °F 39.2 °F 87% 29.75 in 10.0 mi NNW 3.5 mph - N/A   Overcast
10:33 AM 42.8 °F - 41.0 °F 93% 29.75 in 10.0 mi Calm Calm - N/A   Overcast
10:53 AM 42.8 °F 38.6 °F 41.0 °F 93% 29.74 in 5.0 mi NNW 6.9 mph - N/A   Overcast
11:13 AM 44.6 °F 41.4 °F 41.0 °F 87% 29.74 in 7.0 mi NNW 5.8 mph - N/A   Overcast
11:33 AM 44.6 °F 41.4 °F 41.0 °F 87% 29.74 in 10.0 mi NW 5.8 mph - N/A   Overcast
11:54 AM 44.6 °F 43.1 °F 39.2 °F 81% 29.74 in 10.0 mi NNW 3.5 mph - N/A   Overcast
12:13 PM 44.6 °F 42.2 °F 41.0 °F 87% 29.74 in 10.0 mi NW 4.6 mph - N/A   Overcast
12:33 PM 44.6 °F 43.1 °F 41.0 °F 87% 29.74 in 10.0 mi NW 3.5 mph - N/A   Overcast
12:53 PM 46.4 °F 42.4 °F 42.8 °F 87% 29.74 in 10.0 mi NW 8.1 mph - N/A   Overcast
1:13 PM 46.4 °F 42.4 °F 42.8 °F 87% 29.74 in 10.0 mi NW 8.1 mph - N/A   Overcast
1:33 PM 46.4 °F 43.5 °F 42.8 °F 87% 29.74 in 10.0 mi NW 5.8 mph - N/A   Overcast
1:54 PM 46.4 °F 44.3 °F 42.8 °F 87% 29.74 in 10.0 mi NW 4.6 mph - N/A   Overcast
2:13 PM 46.4 °F 44.3 °F 42.8 °F 87% 29.74 in 10.0 mi NW 4.6 mph - N/A   Overcast
2:33 PM 46.4 °F 43.5 °F 42.8 °F 87% 29.74 in 10.0 mi NW 5.8 mph - N/A   Overcast
2:53 PM 46.4 °F 42.9 °F 42.8 °F 87% 29.74 in 10.0 mi NW 6.9 mph - N/A   Overcast
3:13 PM 46.4 °F 41.5 °F 42.8 °F 87% 29.73 in 10.0 mi WNW 10.4 mph - N/A   Overcast
3:33 PM 48.2 °F - 42.8 °F 82% 29.73 in 10.0 mi NW 6.9 mph - N/A   Overcast
3:53 PM 48.2 °F - 42.8 °F 82% 29.73 in 10.0 mi NW 8.1 mph - N/A   Overcast
4:13 PM 48.2 °F - 42.8 °F 82% 29.74 in 10.0 mi NW 8.1 mph - N/A   Overcast
4:33 PM 51.8 °F - 44.6 °F 76% 29.73 in 10.0 mi NW 4.6 mph - N/A   Mostly Cloudy
4:53 PM 51.8 °F - 42.8 °F 71% 29.73 in 10.0 mi Calm Calm - N/A   Scattered Clouds
5:13 PM 51.8 °F - 42.8 °F 71% 29.74 in 10.0 mi Calm Calm - N/A   Clear
5:33 PM 51.8 °F - 42.8 °F 71% 29.74 in 10.0 mi Calm Calm - N/A   Clear
5:53 PM 51.8 °F - 42.8 °F 71% 29.74 in 10.0 mi Calm Calm - N/A   Clear
6:13 PM 50.0 °F - 42.8 °F 76% 29.74 in 10.0 mi Calm Calm - N/A   Clear
6:33 PM 46.4 °F - 42.8 °F 87% 29.74 in 10.0 mi Calm Calm - N/A   Clear
6:53 PM 44.6 °F - 41.0 °F 87% 29.74 in 10.0 mi Calm Calm - N/A   Clear
7:13 PM 42.8 °F - 41.0 °F 93% 29.74 in 10.0 mi Calm Calm - N/A   Clear
7:33 PM 42.8 °F - 39.2 °F 87% 29.74 in 10.0 mi Calm Calm - N/A   Clear
7:53 PM 42.8 °F - 39.2 °F 87% 29.74 in 10.0 mi Calm Calm - N/A   Clear
8:13 PM 42.8 °F - 39.2 °F 87% 29.74 in 10.0 mi Calm Calm - N/A   Clear
8:33 PM 42.8 °F 41.1 °F 41.0 °F 93% 29.74 in 10.0 mi NW 3.5 mph - N/A   Clear
8:53 PM 42.8 °F 41.1 °F 39.2 °F 87% 29.74 in 10.0 mi NW 3.5 mph - N/A   Clear
9:13 PM 41.0 °F - 37.4 °F 87% 29.74 in 10.0 mi Calm Calm - N/A   Clear
9:33 PM 41.0 °F - 37.4 °F 87% 29.74 in 10.0 mi Calm Calm - N/A   Clear
9:53 PM 39.2 °F - 37.4 °F 93% 29.74 in 10.0 mi Calm Calm - N/A   Clear
10:13 PM 39.2 °F - 37.4 °F 93% 29.74 in 10.0 mi Calm Calm - N/A   Clear
10:33 PM 39.2 °F - 37.4 °F 93% 29.74 in 10.0 mi Calm Calm - N/A   Clear
10:53 PM 39.2 °F - 37.4 °F 93% 29.74 in 10.0 mi Calm Calm - N/A   Scattered Clouds
11:13 PM 39.2 °F - 35.6 °F 87% 29.75 in 7.0 mi Calm Calm - N/A   Scattered Clouds
11:33 PM 39.2 °F - 37.4 °F 93% 29.74 in 10.0 mi Calm Calm - N/A   Clear
11:53 PM 39.2 °F - 37.4 °F 93% 29.74 in 10.0 mi Calm Calm - N/A   Clear